When you browse on this site, cookies collect data to enhance your experience and personalize the content and advertising you see.
Visit our Privacy Policy to learn more. By continuing to use the site, you agree to this use of cookies and data.
  • In Hungary
  • List of Countries
  • For 7 days
  • Water Temperature
  • Satellite Maps
  • Weather Map
  • News
  • Weather Widgets
  • user-avatar
    Login

    Hourly Weather Shora

    Today, 12 December, Wednesday

    Time Temperature Precipitation Wind Pressure Humidity
    00:00 +7°C° 0 mm 0 mps 735 mmHg 69%
    01:00 +6°C° 0 mm 0 mps 735 mmHg 70%
    02:00 +6°C° 0 mm 0 mps 735 mmHg 70%
    03:00 +6°C° 0 mm 0 mps 735 mmHg 70%
    04:00 +6°C° 0 mm 0 mps 735 mmHg 70%
    05:00 +7°C° 0 mm 1 mps 735 mmHg 71%
    06:00 +7°C° 0 mm 1 mps 735 mmHg 72%
    07:00 +7°C° 0 mm 1 mps 735 mmHg 72%
    08:00 +7°C° 0 mm 1 mps 735 mmHg 72%
    09:00 +8°C° 0 mm 1 mps 735 mmHg 66%
    10:00 +9°C° 0 mm 1 mps 735 mmHg 60%
    11:00 +11°C° 0 mm 1 mps 734 mmHg 54%
    12:00 +12°C° 0 mm 1 mps 734 mmHg 51%
    13:00 +12°C° 0 mm 2 mps 734 mmHg 48%
    14:00 +12°C° 0 mm 2 mps 734 mmHg 46%
    15:00 +11°C° 0 mm 1 mps 734 mmHg 49%
    16:00 +11°C° 0 mm 1 mps 735 mmHg 53%
    17:00 +9°C° 0 mm 0 mps 735 mmHg 57%
    18:00 +9°C° 0 mm 1 mps 735 mmHg 57%
    19:00 +9°C° 0 mm 1 mps 736 mmHg 57%
    20:00 +8°C° 0 mm 1 mps 736 mmHg 57%
    21:00 +8°C° 0 mm 1 mps 736 mmHg 56%
    22:00 +8°C° 0 mm 1 mps 736 mmHg 56%
    23:00 +8°C° 0 mm 1 mps 736 mmHg 55%

    Tomorrow, 13 December, Thursday

    Time Temperature Precipitation Wind Pressure Humidity
    00:00 +8°C° 0 mm 1 mps 736 mmHg 55%
    01:00 +7°C° 0 mm 1 mps 736 mmHg 55%
    02:00 +7°C° 0 mm 1 mps 736 mmHg 55%
    03:00 +7°C° 0 mm 1 mps 736 mmHg 54%
    04:00 +7°C° 0 mm 1 mps 736 mmHg 54%
    05:00 +6°C° 0 mm 1 mps 737 mmHg 54%
    06:00 +6°C° 0 mm 1 mps 737 mmHg 53%
    07:00 +6°C° 0 mm 1 mps 737 mmHg 53%
    08:00 +6°C° 0 mm 1 mps 737 mmHg 52%
    09:00 +8°C° 0 mm 1 mps 737 mmHg 46%
    10:00 +8°C° 0 mm 2 mps 736 mmHg 41%
    11:00 +10°C° 0 mm 2 mps 736 mmHg 36%
    12:00 +10°C° 0 mm 2 mps 736 mmHg 34%
    13:00 +12°C° 0 mm 2 mps 735 mmHg 32%
    14:00 +12°C° 0 mm 2 mps 735 mmHg 30%
    15:00 +10°C° 0 mm 2 mps 735 mmHg 32%
    16:00 +10°C° 0 mm 1 mps 736 mmHg 35%
    17:00 +9°C° 0 mm 1 mps 736 mmHg 38%
    18:00 +9°C° 0 mm 1 mps 737 mmHg 37%
    19:00 +9°C° 0 mm 1 mps 737 mmHg 36%
    20:00 +8°C° 0 mm 1 mps 738 mmHg 35%
    21:00 +8°C° 0 mm 1 mps 738 mmHg 35%
    22:00 +8°C° 0 mm 1 mps 738 mmHg 35%
    23:00 +8°C° 0 mm 1 mps 738 mmHg 34%

    Day after tomorrow, 14 December, Friday

    Time Temperature Precipitation Wind Pressure Humidity
    00:00 +7°C° 0 mm 1 mps 738 mmHg 34%
    01:00 +6°C° 0 mm 2 mps 738 mmHg 35%
    02:00 +6°C° 0 mm 2 mps 738 mmHg 35%
    03:00 +6°C° 0 mm 2 mps 738 mmHg 35%
    04:00 +5°C° 0 mm 2 mps 738 mmHg 35%
    05:00 +6°C° 0 mm 1 mps 738 mmHg 36%
    06:00 +6°C° 0 mm 1 mps 738 mmHg 36%
    07:00 +6°C° 0 mm 1 mps 738 mmHg 35%
    08:00 +5°C° 0 mm 2 mps 738 mmHg 35%
    09:00 +7°C° 0 mm 2 mps 737 mmHg 32%
    10:00 +8°C° 0 mm 2 mps 737 mmHg 28%
    11:00 +10°C° 0 mm 2 mps 737 mmHg 25%
    12:00 +10°C° 0 mm 2 mps 736 mmHg 24%
    13:00 +12°C° 0 mm 2 mps 736 mmHg 22%
    14:00 +13°C° 0 mm 2 mps 736 mmHg 21%
    15:00 +10°C° 0 mm 2 mps 736 mmHg 24%
    16:00 +10°C° 0 mm 1 mps 736 mmHg 26%
    17:00 +9°C° 0 mm 1 mps 737 mmHg 29%
    18:00 +9°C° 0 mm 1 mps 737 mmHg 28%
    19:00 +9°C° 0 mm 1 mps 737 mmHg 28%
    20:00 +8°C° 0 mm 1 mps 738 mmHg 27%
    21:00 +8°C° 0 mm 1 mps 738 mmHg 27%
    22:00 +8°C° 0 mm 1 mps 738 mmHg 27%
    23:00 +8°C° 0 mm 1 mps 738 mmHg 27%

    15 December, Saturday

    Time Temperature Precipitation Wind Pressure Humidity
    00:00 +8°C° 0 mm 1 mps 737 mmHg 27%
    01:00 +8°C° 0 mm 1 mps 737 mmHg 28%
    02:00 +7°C° 0 mm 1 mps 737 mmHg 28%
    03:00 +7°C° 0 mm 1 mps 737 mmHg 28%
    04:00 +7°C° 0 mm 1 mps 737 mmHg 29%
    05:00 +7°C° 0 mm 1 mps 737 mmHg 29%
    06:00 +7°C° 0 mm 1 mps 737 mmHg 29%
    07:00 +7°C° 0 mm 1 mps 737 mmHg 29%
    08:00 +7°C° 0 mm 1 mps 737 mmHg 29%
    09:00 +9°C° 0 mm 1 mps 737 mmHg 27%
    10:00 +10°C° 0 mm 1 mps 737 mmHg 24%
    11:00 +12°C° 0 mm 2 mps 736 mmHg 22%
    12:00 +12°C° 0 mm 2 mps 736 mmHg 21%
    13:00 +13°C° 0 mm 2 mps 735 mmHg 20%
    14:00 +13°C° 0 mm 2 mps 735 mmHg 20%
    15:00 +12°C° 0 mm 1 mps 735 mmHg 22%
    16:00 +11°C° 0 mm 1 mps 735 mmHg 25%
    17:00 +10°C° 0 mm 1 mps 736 mmHg 28%
    18:00 +9°C° 0 mm 1 mps 736 mmHg 27%
    19:00 +9°C° 0 mm 1 mps 736 mmHg 27%
    20:00 +9°C° 0 mm 1 mps 736 mmHg 26%
    21:00 +9°C° 0 mm 1 mps 736 mmHg 26%
    22:00 +9°C° 0 mm 1 mps 736 mmHg 26%
    23:00 +8°C° 0 mm 1 mps 736 mmHg 26%

    16 December, Sunday

    Time Temperature Precipitation Wind Pressure Humidity
    00:00 +8°C° 0 mm 1 mps 736 mmHg 26%
    01:00 +8°C° 0 mm 1 mps 736 mmHg 26%
    02:00 +8°C° 0 mm 1 mps 736 mmHg 26%
    03:00 +8°C° 0 mm 1 mps 737 mmHg 26%
    04:00 +8°C° 0 mm 1 mps 737 mmHg 27%
    05:00 +8°C° 0 mm 1 mps 737 mmHg 27%
    06:00 +7°C° 0 mm 1 mps 737 mmHg 28%
    07:00 +7°C° 0 mm 1 mps 737 mmHg 29%
    08:00 +7°C° 0 mm 1 mps 738 mmHg 29%
    09:00 +9°C° 0 mm 1 mps 738 mmHg 27%
    10:00 +11°C° 0 mm 1 mps 738 mmHg 24%
    11:00 +12°C° 0 mm 1 mps 737 mmHg 21%
    12:00 +13°C° 0 mm 2 mps 737 mmHg 21%
    13:00 +13°C° 0 mm 2 mps 737 mmHg 21%
    14:00 +12°C° 0 mm 3 mps 737 mmHg 21%
    15:00 +11°C° 0 mm 3 mps 737 mmHg 24%
    16:00 +10°C° 0 mm 3 mps 738 mmHg 27%
    17:00 +9°C° 0 mm 3 mps 738 mmHg 30%
    18:00 +9°C° 0 mm 3 mps 739 mmHg 34%
    19:00 +8°C° 0 mm 3 mps 739 mmHg 37%
    20:00 +8°C° 0 mm 2 mps 739 mmHg 41%
    21:00 +7°C° 0 mm 2 mps 739 mmHg 43%
    22:00 +7°C° 0 mm 2 mps 739 mmHg 45%
    23:00 +8°C° 0 mm 1 mps 739 mmHg 47%

    17 December, Monday

    Time Temperature Precipitation Wind Pressure Humidity
    00:00 +7°C° 0 mm 1 mps 738 mmHg 48%
    01:00 +7°C° 0 mm 1 mps 738 mmHg 49%
    02:00 +7°C° 0 mm 1 mps 738 mmHg 50%
    03:00 +7°C° 0 mm 1 mps 738 mmHg 51%
    04:00 +7°C° 0 mm 1 mps 737 mmHg 51%
    05:00 +6°C° 0 mm 1 mps 737 mmHg 51%
    06:00 +6°C° 0 mm 1 mps 737 mmHg 50%
    07:00 +6°C° 0 mm 1 mps 737 mmHg 49%
    08:00 +7°C° 0 mm 1 mps 737 mmHg 47%
    09:00 +8°C° 0 mm 1 mps 737 mmHg 43%
    10:00 +9°C° 0 mm 1 mps 737 mmHg 38%
    11:00 +10°C° 0 mm 1 mps 737 mmHg 34%
    12:00 +9°C° 0 mm 2 mps 737 mmHg 33%
    13:00 +10°C° 0 mm 2 mps 736 mmHg 32%
    14:00 +10°C° 0 mm 2 mps 736 mmHg 31%
    15:00 +9°C° 0 mm 2 mps 736 mmHg 33%
    16:00 +10°C° 0 mm 1 mps 737 mmHg 35%
    17:00 +9°C° 0 mm 1 mps 737 mmHg 38%
    18:00 +9°C° 0 mm 1 mps 737 mmHg 38%
    19:00 +9°C° 0 mm 1 mps 737 mmHg 38%
    20:00 +9°C° 0 mm 1 mps 737 mmHg 38%
    21:00 +8°C° 0 mm 1 mps 737 mmHg 38%
    22:00 +8°C° 0 mm 1 mps 737 mmHg 38%
    23:00 +8°C° 0 mm 1 mps 737 mmHg 38%
    Show more